AUL146 ULLI-ULAA

Flight info

Callsign AUL146
Flight time 1h 12m
Altitude 39000
Route RELNI T693 DISUP DCT MAKOG
Aircraft B737/M-SDE2E3FGHIRWXY/LB1

Departure

Time 2026-04-24 08:11
Airport Pulkovo Airport (ULLI)

Arrival

Time 2026-04-24 09:23
Airport Talagi Airport (ULAA)
Time Latitude Longitude Altitude Speed Heading
2026-04-24 08:04 59.80385 30.26757 81 ft 10 kts 33°
2026-04-24 08:04 59.80393 30.26881 77 ft 10 kts 107°
2026-04-24 08:05 59.80371 30.27021 79 ft 11 kts 107°
2026-04-24 08:05 59.80349 30.27168 77 ft 11 kts 107°
2026-04-24 08:05 59.80326 30.27321 82 ft 12 kts 107°
2026-04-24 08:05 59.80302 30.27486 81 ft 13 kts 105°
2026-04-24 08:06 59.80276 30.27665 77 ft 14 kts 107°
2026-04-24 08:06 59.80247 30.27857 77 ft 15 kts 107°
2026-04-24 08:06 59.80216 30.28064 71 ft 16 kts 107°
2026-04-24 08:06 59.80183 30.28282 74 ft 16 kts 106°
2026-04-24 08:07 59.80150 30.28505 73 ft 17 kts 106°
2026-04-24 08:07 59.80123 30.28683 73 ft 14 kts 107°
2026-04-24 08:07 59.80095 30.28875 72 ft 15 kts 106°
2026-04-24 08:07 59.80064 30.29081 75 ft 16 kts 106°
2026-04-24 08:08 59.80031 30.29301 74 ft 17 kts 107°
2026-04-24 08:08 59.80000 30.29506 68 ft 15 kts 107°
2026-04-24 08:08 59.79968 30.29716 66 ft 16 kts 106°
2026-04-24 08:09 59.79951 30.30051 63 ft 12 kts 52°
2026-04-24 08:09 59.80002 30.30162 65 ft 9 kts 47°
2026-04-24 08:09 59.80048 30.30258 72 ft 10 kts 40°
2026-04-24 08:09 59.80110 30.30271 69 ft 6 kts 317°
2026-04-24 08:10 59.80128 30.30188 72 ft 7 kts 286°
2026-04-24 08:10 59.80133 30.30150 66 ft 0 kts 285°
2026-04-24 08:10 59.80133 30.30149 66 ft 0 kts 285°
2026-04-24 08:10 59.80192 30.29754 72 ft 70 kts 287°
2026-04-24 08:11 59.80402 30.28344 70 ft 139 kts 286°
2026-04-24 08:11 59.80699 30.26310 504 ft 160 kts 287°
2026-04-24 08:11 59.81018 30.24262 1589 ft 146 kts 288°
2026-04-24 08:11 59.81296 30.22342 2702 ft 148 kts 289°
2026-04-24 08:12 59.81625 30.20151 3174 ft 185 kts 289°
2026-04-24 08:12 59.82024 30.17473 3553 ft 217 kts 288°
2026-04-24 08:12 59.82454 30.14555 4603 ft 220 kts 289°
2026-04-24 08:12 59.82888 30.11593 5631 ft 225 kts 289°
2026-04-24 08:13 59.83330 30.08584 6646 ft 229 kts 289°
2026-04-24 08:13 59.83779 30.05531 7653 ft 232 kts 290°
2026-04-24 08:13 59.84331 30.02504 8629 ft 233 kts 305°
2026-04-24 08:13 59.85482 30.00295 9644 ft 231 kts 333°
2026-04-24 08:14 59.87013 29.99417 10620 ft 230 kts 356°
2026-04-24 08:14 59.88601 29.99812 11629 ft 232 kts 11°
2026-04-24 08:14 59.90164 30.00687 12591 ft 234 kts 13°
2026-04-24 08:14 59.91668 30.02018 13558 ft 243 kts 31°
2026-04-24 08:15 59.92821 30.04560 14500 ft 256 kts 52°
2026-04-24 08:15 59.93391 30.08040 15406 ft 278 kts 76°
2026-04-24 08:15 59.93139 30.12018 16274 ft 299 kts 95°
2026-04-24 08:15 59.92554 30.16058 17094 ft 308 kts 96°
2026-04-24 08:16 59.91855 30.20171 17842 ft 323 kts 102°
2026-04-24 08:16 59.90914 30.24396 18075 ft 352 kts 105°
2026-04-24 08:16 59.89838 30.28969 18349 ft 374 kts 106°
2026-04-24 08:16 59.88829 30.33775 18945 ft 374 kts 94°
2026-04-24 08:17 59.88473 30.38895 19226 ft 379 kts 82°
2026-04-24 08:17 59.88379 30.44274 19455 ft 397 kts 81°
2026-04-24 08:17 59.88291 30.49856 19959 ft 408 kts 81°
2026-04-24 08:17 59.88153 30.55537 20649 ft 414 kts 82°
2026-04-24 08:18 59.87982 30.61279 21386 ft 417 kts 81°
2026-04-24 08:18 59.88035 30.66955 22048 ft 401 kts 67°
2026-04-24 08:18 59.88871 30.72068 22747 ft 377 kts 50°
2026-04-24 08:18 59.90213 30.76452 23460 ft 369 kts 44°
2026-04-24 08:19 59.91648 30.80710 24036 ft 370 kts 43°
2026-04-24 08:19 59.93106 30.84969 24574 ft 373 kts 43°
2026-04-24 08:19 59.94573 30.89278 25092 ft 377 kts 44°
2026-04-24 08:19 59.96044 30.93644 25593 ft 381 kts 44°
2026-04-24 08:20 59.97520 30.98073 26084 ft 385 kts 44°
2026-04-24 08:20 59.99004 31.02556 26567 ft 388 kts 44°
2026-04-24 08:20 60.00495 31.07088 27033 ft 392 kts 44°
2026-04-24 08:20 60.01995 31.11660 27482 ft 395 kts 44°
2026-04-24 08:21 60.03507 31.16283 27919 ft 399 kts 44°
2026-04-24 08:21 60.05030 31.20948 28343 ft 402 kts 44°
2026-04-24 08:21 60.06560 31.25647 28764 ft 405 kts 44°
2026-04-24 08:21 60.08102 31.30391 29167 ft 408 kts 44°
2026-04-24 08:22 60.09652 31.35166 29565 ft 411 kts 44°
2026-04-24 08:22 60.11213 31.39983 29920 ft 413 kts 45°
2026-04-24 08:22 60.12774 31.44812 30319 ft 413 kts 44°
2026-04-24 08:22 60.14557 31.49151 30697 ft 395 kts 33°
2026-04-24 08:23 60.16669 31.52407 31057 ft 382 kts 22°
2026-04-24 08:23 60.19030 31.54698 31402 ft 376 kts 16°
2026-04-24 08:23 60.21447 31.56735 31722 ft 377 kts 16°
2026-04-24 08:23 60.23879 31.58761 32048 ft 379 kts 16°
2026-04-24 08:24 60.26317 31.60803 32399 ft 380 kts 16°
2026-04-24 08:24 60.28762 31.62870 32733 ft 381 kts 16°
2026-04-24 08:24 60.31207 31.64955 33045 ft 383 kts 17°
2026-04-24 08:24 60.33664 31.67062 33368 ft 384 kts 17°
2026-04-24 08:25 60.36125 31.69183 33689 ft 385 kts 17°
2026-04-24 08:25 60.38596 31.71317 33910 ft 387 kts 17°
2026-04-24 08:25 60.41085 31.73472 34085 ft 391 kts 17°
2026-04-24 08:25 60.43556 31.75616 34301 ft 392 kts 17°
2026-04-24 08:26 60.46069 31.77801 34524 ft 394 kts 17°
2026-04-24 08:26 60.48605 31.80008 34711 ft 397 kts 18°
2026-04-24 08:26 60.51153 31.82230 34909 ft 399 kts 18°
2026-04-24 08:26 60.53713 31.84467 35122 ft 401 kts 18°
2026-04-24 08:27 60.56287 31.86720 35313 ft 404 kts 18°
2026-04-24 08:27 60.58872 31.88987 35505 ft 406 kts 18°
2026-04-24 08:27 60.61472 31.91271 35719 ft 408 kts 18°
2026-04-24 08:27 60.64082 31.93566 35903 ft 410 kts 19°
2026-04-24 08:28 60.66709 31.95881 36111 ft 412 kts 19°
2026-04-24 08:28 60.69375 31.97966 36328 ft 410 kts 13°
2026-04-24 08:28 60.72141 31.99356 36507 ft 409 kts
2026-04-24 08:28 60.74964 31.99980 36682 ft 409 kts
2026-04-24 08:29 60.77812 32.00184 36898 ft 410 kts 360°
2026-04-24 08:29 60.80672 32.00352 37078 ft 412 kts 360°
2026-04-24 08:29 60.83546 32.00533 37260 ft 414 kts
2026-04-24 08:29 60.86429 32.00742 37456 ft 416 kts
2026-04-24 08:30 60.89327 32.00970 37641 ft 417 kts
2026-04-24 08:30 60.92238 32.01222 37798 ft 420 kts
2026-04-24 08:30 60.95120 32.02366 37940 ft 426 kts 15°
2026-04-24 08:30 60.97879 32.04677 38183 ft 430 kts 23°
2026-04-24 08:31 61.00448 32.07919 38323 ft 438 kts 35°
2026-04-24 08:31 61.02743 32.12115 38478 ft 441 kts 39°
2026-04-24 08:31 61.04964 32.16490 38612 ft 442 kts 39°
2026-04-24 08:32 61.09356 32.25356 38613 ft 444 kts 40°
2026-04-24 08:32 61.13779 32.34242 38612 ft 442 kts 39°
2026-04-24 08:33 61.18207 32.43060 38618 ft 441 kts 39°
2026-04-24 08:33 61.22634 32.51863 38611 ft 440 kts 39°
2026-04-24 08:34 61.27052 32.60674 38608 ft 440 kts 39°
2026-04-24 08:34 61.31464 32.69509 38605 ft 440 kts 40°
2026-04-24 08:35 61.35847 32.78327 38601 ft 441 kts 40°
2026-04-24 08:35 61.40258 32.87238 38602 ft 442 kts 40°
2026-04-24 08:36 61.44672 32.96192 38597 ft 443 kts 40°
2026-04-24 08:36 61.49086 33.05186 38596 ft 443 kts 40°
2026-04-24 08:37 61.53508 33.14233 38600 ft 444 kts 40°
2026-04-24 08:37 61.57930 33.23317 38591 ft 445 kts 40°
2026-04-24 08:38 61.62324 33.32383 38592 ft 446 kts 40°
2026-04-24 08:38 61.66024 33.40046 38593 ft 446 kts 40°
2026-04-24 08:39 61.70446 33.49241 38588 ft 447 kts 40°
2026-04-24 08:39 61.74869 33.58477 38582 ft 447 kts 41°
2026-04-24 08:40 61.79250 33.67665 38583 ft 447 kts 41°
2026-04-24 08:40 61.83660 33.76952 38584 ft 448 kts 41°
2026-04-24 08:41 61.88817 33.87863 38581 ft 448 kts 41°
2026-04-24 08:41 61.92473 33.95633 38582 ft 448 kts 41°
2026-04-24 08:42 61.96870 34.05014 38584 ft 448 kts 41°
2026-04-24 08:42 62.01255 34.14409 38584 ft 448 kts 41°
2026-04-24 08:43 62.05644 34.23855 38580 ft 448 kts 41°
2026-04-24 08:43 62.10023 34.33319 38577 ft 448 kts 41°
2026-04-24 08:44 62.14400 34.42822 38574 ft 448 kts 41°
2026-04-24 08:44 62.18771 34.52353 38572 ft 449 kts 42°
2026-04-24 08:45 62.23112 34.61860 38567 ft 449 kts 42°
2026-04-24 08:45 62.27482 34.71471 38574 ft 450 kts 42°
2026-04-24 08:46 62.31854 34.81132 38574 ft 450 kts 42°
2026-04-24 08:46 62.36214 34.90808 38565 ft 451 kts 42°
2026-04-24 08:47 62.40574 35.00526 38566 ft 451 kts 42°
2026-04-24 08:47 62.44933 35.10287 38564 ft 452 kts 43°
2026-04-24 08:48 62.49296 35.20100 38561 ft 453 kts 43°
2026-04-24 08:48 62.53626 35.29884 38558 ft 453 kts 43°
2026-04-24 08:49 62.57985 35.39777 38555 ft 454 kts 43°
2026-04-24 08:49 62.62342 35.49711 38555 ft 454 kts 43°
2026-04-24 08:50 62.66697 35.59684 38553 ft 455 kts 43°
2026-04-24 08:50 62.71046 35.69691 38552 ft 455 kts 43°
2026-04-24 08:51 62.75397 35.79747 38554 ft 456 kts 43°
2026-04-24 08:51 62.79741 35.89835 38545 ft 456 kts 43°
2026-04-24 08:52 62.84085 35.99969 38547 ft 457 kts 43°
2026-04-24 08:52 62.88397 36.10074 38543 ft 457 kts 44°
2026-04-24 08:53 62.92733 36.20283 38554 ft 458 kts 44°
2026-04-24 08:53 62.97067 36.30536 38544 ft 458 kts 44°
2026-04-24 08:54 63.01402 36.40840 38541 ft 458 kts 44°
2026-04-24 08:54 63.05724 36.51160 38541 ft 458 kts 44°
2026-04-24 08:55 63.10038 36.61510 38538 ft 458 kts 44°
2026-04-24 08:55 63.14347 36.71896 38543 ft 458 kts 44°
2026-04-24 08:56 63.18649 36.82316 38541 ft 458 kts 45°
2026-04-24 08:56 63.22942 36.92764 38534 ft 458 kts 45°
2026-04-24 08:57 63.27230 37.03248 38534 ft 458 kts 45°
2026-04-24 08:57 63.31512 37.13767 38533 ft 458 kts 45°
2026-04-24 08:58 63.35755 37.24241 38535 ft 458 kts 45°
2026-04-24 08:58 63.40023 37.34827 38527 ft 459 kts 45°
2026-04-24 08:59 63.44284 37.45448 38529 ft 459 kts 45°
2026-04-24 08:59 63.48540 37.56107 38520 ft 459 kts 46°
2026-04-24 09:00 63.52793 37.66808 38517 ft 459 kts 46°
2026-04-24 09:00 63.57010 37.77472 38518 ft 459 kts 46°
2026-04-24 09:01 63.61241 37.88225 38516 ft 460 kts 46°
2026-04-24 09:01 63.65465 37.99009 38509 ft 460 kts 46°
2026-04-24 09:02 63.69707 38.09893 37971 ft 468 kts 46°
2026-04-24 09:02 63.71851 38.15412 37315 ft 467 kts 46°
2026-04-24 09:02 63.73985 38.20925 36603 ft 466 kts 46°
2026-04-24 09:02 63.76117 38.26447 35891 ft 465 kts 46°
2026-04-24 09:03 63.78243 38.31965 35131 ft 466 kts 46°
2026-04-24 09:03 63.80375 38.37510 34281 ft 469 kts 46°
2026-04-24 09:03 63.82493 38.43032 33412 ft 472 kts 46°
2026-04-24 09:03 63.84652 38.48674 32362 ft 474 kts 46°
2026-04-24 09:04 63.86805 38.54320 31395 ft 474 kts 47°
2026-04-24 09:04 63.88956 38.59974 30611 ft 470 kts 47°
2026-04-24 09:04 63.91077 38.65569 29931 ft 465 kts 47°
2026-04-24 09:04 63.93175 38.71113 29180 ft 460 kts 47°
2026-04-24 09:05 63.95242 38.76588 28401 ft 454 kts 47°
2026-04-24 09:05 63.97280 38.81998 27716 ft 446 kts 47°
2026-04-24 09:05 63.99284 38.87329 27017 ft 441 kts 48°
2026-04-24 09:05 64.01268 38.92617 26343 ft 436 kts 48°
2026-04-24 09:06 64.03224 38.97841 25668 ft 431 kts 49°
2026-04-24 09:06 64.05161 39.03030 25024 ft 427 kts 49°
2026-04-24 09:06 64.06920 39.08448 24329 ft 425 kts 62°
2026-04-24 09:06 64.08212 39.14489 23677 ft 421 kts 66°
2026-04-24 09:07 64.09435 39.20550 23053 ft 418 kts 67°
2026-04-24 09:07 64.10639 39.26563 22317 ft 414 kts 67°
2026-04-24 09:07 64.13031 39.38372 21006 ft 403 kts 67°
2026-04-24 09:08 64.14215 39.44153 20340 ft 399 kts 66°
2026-04-24 09:08 64.15377 39.49820 19721 ft 395 kts 66°
2026-04-24 09:08 64.16541 39.55493 19117 ft 391 kts 66°
2026-04-24 09:08 64.17690 39.61107 18514 ft 387 kts 66°
2026-04-24 09:09 64.18828 39.66682 17908 ft 384 kts 66°
2026-04-24 09:09 64.19952 39.72202 17257 ft 380 kts 66°
2026-04-24 09:09 64.21063 39.77675 16621 ft 376 kts 66°
2026-04-24 09:09 64.22157 39.83082 16002 ft 371 kts 66°
2026-04-24 09:10 64.23238 39.88432 15370 ft 367 kts 66°
2026-04-24 09:10 64.24305 39.93725 14767 ft 363 kts 66°
2026-04-24 09:10 64.25360 39.98975 14187 ft 359 kts 66°
2026-04-24 09:10 64.26400 40.04165 13601 ft 355 kts 66°
2026-04-24 09:11 64.27427 40.09309 13010 ft 352 kts 66°
2026-04-24 09:11 64.28441 40.14409 12351 ft 350 kts 66°
2026-04-24 09:11 64.29448 40.19485 11715 ft 347 kts 66°
2026-04-24 09:11 64.30436 40.24474 11097 ft 344 kts 66°
2026-04-24 09:12 64.31421 40.29463 10501 ft 340 kts 66°
2026-04-24 09:12 64.32410 40.34481 9891 ft 339 kts 66°
2026-04-24 09:12 64.33349 40.39255 9724 ft 324 kts 66°
2026-04-24 09:12 64.34261 40.43906 9562 ft 312 kts 66°
2026-04-24 09:13 64.35137 40.48381 9407 ft 300 kts 66°
2026-04-24 09:13 64.35970 40.52648 9325 ft 285 kts 66°
2026-04-24 09:13 64.36798 40.56893 8711 ft 290 kts 66°
2026-04-24 09:13 64.37622 40.61129 8292 ft 288 kts 66°
2026-04-24 09:14 64.38438 40.65334 7897 ft 286 kts 66°
2026-04-24 09:14 64.39246 40.69505 7516 ft 283 kts 66°
2026-04-24 09:14 64.40044 40.73633 7130 ft 280 kts 66°
2026-04-24 09:14 64.40834 40.77732 6778 ft 278 kts 66°
2026-04-24 09:15 64.41618 40.81802 6415 ft 276 kts 66°
2026-04-24 09:15 64.42394 40.85841 6044 ft 274 kts 66°
2026-04-24 09:15 64.43164 40.89860 5688 ft 272 kts 66°
2026-04-24 09:15 64.43929 40.93849 5320 ft 270 kts 66°
2026-04-24 09:16 64.44687 40.97811 4958 ft 268 kts 66°
2026-04-24 09:16 64.45436 41.01742 4606 ft 266 kts 66°
2026-04-24 09:16 64.46177 41.05640 4282 ft 263 kts 66°
2026-04-24 09:16 64.46913 41.09507 3956 ft 260 kts 65°
2026-04-24 09:17 64.47969 41.12835 3610 ft 257 kts 36°
2026-04-24 09:17 64.49541 41.14560 3414 ft 245 kts 11°
2026-04-24 09:17 64.51181 41.15159 3310 ft 234 kts
2026-04-24 09:17 64.52747 41.15559 3193 ft 225 kts
2026-04-24 09:18 64.54275 41.15953 3080 ft 216 kts
2026-04-24 09:18 64.55736 41.16322 2979 ft 205 kts 359°
2026-04-24 09:18 64.57044 41.15532 2934 ft 191 kts 320°
2026-04-24 09:18 64.57823 41.13145 2963 ft 187 kts 286°
2026-04-24 09:19 64.58098 41.10190 3010 ft 186 kts 278°
2026-04-24 09:19 64.58320 41.07218 2775 ft 184 kts 276°
2026-04-24 09:19 64.58475 41.04384 2538 ft 169 kts 275°
2026-04-24 09:19 64.58599 41.01771 2306 ft 156 kts 275°
2026-04-24 09:20 64.58711 40.99344 2148 ft 148 kts 275°
2026-04-24 09:20 64.58819 40.97021 2066 ft 137 kts 275°
2026-04-24 09:20 64.58917 40.94919 1941 ft 124 kts 275°
2026-04-24 09:20 64.59007 40.92976 1753 ft 117 kts 275°
2026-04-24 09:21 64.59095 40.91116 1602 ft 116 kts 275°
2026-04-24 09:21 64.59184 40.89213 1469 ft 120 kts 275°
2026-04-24 09:21 64.59275 40.87296 1273 ft 119 kts 275°
2026-04-24 09:21 64.59365 40.85408 1075 ft 116 kts 275°
2026-04-24 09:22 64.59452 40.83563 929 ft 115 kts 276°
2026-04-24 09:22 64.59544 40.81636 748 ft 122 kts 276°
2026-04-24 09:22 64.59639 40.79675 572 ft 121 kts 276°
2026-04-24 09:22 64.59732 40.77732 395 ft 120 kts 277°
2026-04-24 09:23 64.59825 40.75823 241 ft 118 kts 278°
2026-04-24 09:23 64.59917 40.73893 94 ft 120 kts 278°
2026-04-24 09:23 64.60010 40.72066 34 ft 91 kts 276°
2026-04-24 09:23 64.60057 40.71102 35 ft 28 kts 276°
2026-04-24 09:24 64.60069 40.70854 37 ft 13 kts 276°
2026-04-24 09:24 64.60079 40.70642 36 ft 13 kts 276°
2026-04-24 09:24 64.60089 40.70437 34 ft 13 kts 276°
2026-04-24 09:24 64.60096 40.70267 35 ft 9 kts 264°
2026-04-24 09:25 64.60053 40.70213 36 ft 7 kts 187°
2026-04-24 09:25 64.60004 40.70200 39 ft 7 kts 186°
2026-04-24 09:25 64.59955 40.70187 39 ft 7 kts 186°
2026-04-24 09:25 64.59908 40.70178 39 ft 7 kts 174°
2026-04-24 09:26 64.59884 40.70262 39 ft 7 kts 96°
2026-04-24 09:26 64.59879 40.70369 39 ft 7 kts 96°
2026-04-24 09:26 64.59874 40.70473 39 ft 6 kts 96°
2026-04-24 09:26 64.59870 40.70574 39 ft 6 kts 96°
2026-04-24 09:27 64.59865 40.70676 39 ft 6 kts 96°
2026-04-24 09:27 64.59860 40.70773 39 ft 6 kts 96°
2026-04-24 09:27 64.59855 40.70869 39 ft 6 kts 96°
2026-04-24 09:27 64.59850 40.70964 39 ft 6 kts 96°
2026-04-24 09:28 64.59845 40.71056 39 ft 6 kts 97°
2026-04-24 09:28 64.59841 40.71147 39 ft 6 kts 95°
2026-04-24 09:28 64.59837 40.71237 38 ft 5 kts 98°
2026-04-24 09:28 64.59811 40.71286 39 ft 5 kts 180°
2026-04-24 09:29 64.59773 40.71274 39 ft 5 kts 187°
2026-04-24 09:29 64.59737 40.71280 39 ft 5 kts 151°
2026-04-24 09:29 64.59723 40.71355 39 ft 5 kts 98°
2026-04-24 09:29 64.59718 40.71438 39 ft 5 kts 97°
2026-04-24 09:30 64.59709 40.71480 38 ft 4 kts 139°
2026-04-24 09:30 64.59672 40.71482 39 ft 2 kts 185°
2026-04-24 09:30 64.59663 40.71479 39 ft 2 kts 186°
2026-04-24 09:30 64.59661 40.71479 39 ft 0 kts 186°